Regional Weather Roundup
Issued by NWS

Home | Current Version | Previous Version | Graphics & Text | Print | Product List | Glossary On
Versions: 1 2 3 4 5 6 7 8 9 10 11 12 13 14 15 16 17 18 19 20 21 22 23 24 25 26 27 28 29 30 31 32 33 34 35 36 37 38 39 40 41 42 43 44 45 46 47 48 49 50
000
ASUS43 KLMK 251010
RWRKY
KENTUCKY REGIONAL WEATHER ROUNDUP
NATIONAL WEATHER SERVICE LOUISVILLE KY
600 AM EDT WED MAY 25 2016

NOTE "FAIR" INDICATES FEW OR NO CLOUDS BELOW 12,000 FEET
WITH NO SIGNIFICANT WEATHER AND/OR OBSTRUCTIONS TO VISIBILITY.

KYZ001>023-026-027-061>063-070>075-251100-
WESTERN AND SOUTH CENTRAL KENTUCKY

CITY           SKY/WX    TMP DP  RH WIND       PRES   REMARKS
PADUCAH        CLOUDY    65  62  90 SW5       30.03R
HENDERSON      CLOUDY    63  57  82 CALM      30.03S
OWENSBORO      CLOUDY    69  62  78 SE3       30.06R
HOPKINSVILLE   CLOUDY    69  62  77 S6        30.06R
BOWLING GREEN  CLOUDY    66  61  84 E5        30.08R
GLASGOW        CLOUDY    64  58  81 CALM      30.10R
$$

KYZ024-025-028>034-038-045-046-053-251100-
NORTH CENTRAL KENTUCKY

CITY           SKY/WX    TMP DP  RH WIND       PRES   REMARKS
LOUISVILLE/SDF CLOUDY    68  55  63 SE5       30.07S
LOUISVILLE/LOU CLOUDY    69  56  62 SE3       30.08S
FORT KNOX      CLOUDY    66  57  73 E2        30.06S
$$

KYZ035>037-039>044-047>052-055>060-089>105-251100-
NORTHEAST KENTUCKY

CITY           SKY/WX    TMP DP  RH WIND       PRES   REMARKS
LEXINGTON      MOCLDY    62  50  64 SE6       30.13R
COVINGTON      CLOUDY    64  53  67 S6        30.11R
FRANKFORT      CLOUDY    63  53  70 SE7       30.10S
$$

KYZ054-064>069-076>088-106>120-251100-
SOUTHEAST KENTUCKY

CITY           SKY/WX    TMP DP  RH WIND       PRES   REMARKS
JACKSON        PTCLDY    61  47  59 S3        30.18R
LONDON         CLEAR     55  50  83 CALM      30.16R
SOMERSET       PTCLDY    54  54 100 CALM      30.15S
MIDDLESBORO    CLEAR     51  50  97 CALM      30.21S
MONTICELLO     SUNNY     58  55  90 W10       30.15R
$$




USA.gov is the U.S. government's official web portal to all federal, state and local government web resources and services.